Regional Weather Roundup
Issued by NWS

Home | Current Version | Previous Version | Text Only | Print | Product List | Glossary Off
Versions: 1 2 3 4 5 6 7 8 9 10 11 12 13 14 15 16 17 18 19 20 21 22 23 24 25 26 27 28 29 30 31 32 33 34 35 36 37 38 39 40 41 42 43 44 45 46 47 48 49 50

000
ASUS43 KMPX 311110
RWRMN
WEATHER ROUNDUP FOR MINNESOTA
NATIONAL WEATHER SERVICE TWIN CITIES/CHANHASSEN MN
600 AM CDT FRI OCT 31 2014


NOTE: "FAIR" INDICATES FEW OR NO CLOUDS BELOW 12,000 FEET WITH NO
SIGNIFICANT WEATHER AND/OR OBSTRUCTIONS TO VISIBILITY. N/A MEANS
CURRENT SKY AND/OR WEATHER CONDITIONS ARE NOT AVAILABLE.

MNZ060>063-068>070-311200-
   Twin Cities Metro

CITY           SKY/WX    TMP DP  RH WIND       PRES   REMARKS
TWIN CITIES    CLEAR     27  17  66 N10       30.50R WCI  17
ST PAUL        CLEAR     28  16  60 NW13G22   30.51R WCI  17
CRYSTAL        CLEAR     29  16  58 N12       30.49R WCI  19
BLAINE         CLEAR     28  18  64 N9        30.49R WCI  20
LAKEVILLE      CLEAR     27  16  63 N14       30.47S WCI  15
EDEN PRAIRIE   CLEAR     28  17  63 N9        30.48R WCI  19
SOUTH ST PAUL  CLEAR     29  17  59 N13G20    30.49R WCI  19
LAKE ELMO      FAIR      28  19  69 N9        30.48R WCI  20
$$
MNZ001>005-007-008-013>017-022>024-027-028-311200-
   Northwest Minnesota

CITY           SKY/WX    TMP DP  RH WIND       PRES   REMARKS
BEMIDJI        CLEAR     20  15  81 NE5       30.54S WCI  14
HALLOCK        CLEAR     14  10  85 CALM      30.61R
ROSEAU         CLEAR     19  16  86 N3        30.58S
WARROAD        CLEAR     19  16  86 NW5       30.58S WCI  13
THIEF RVR FALL CLEAR     21  16  79 NE6       30.57S WCI  14
CROOKSTON      CLEAR     12  10  92 NW7       30.62R WCI   2
FOSSTON        CLEAR     16  14  93 CALM      30.56S
DETROIT LAKES  CLEAR     21  19  93 NW3       30.56R
MOORHEAD       CLEAR     16  16 100 N5        30.61R WCI   9
PARK RAPIDS    CLEAR     17  13  84 N3        30.53R
MAHNOMEN       FAIR      17  15  90 NE5       30.56S WCI  10
$$
MNZ006-009>011-018-025>026-311200-
   North Central Minnesota

CITY           SKY/WX    TMP DP  RH WIND       PRES   REMARKS
BAUDETTE       CLEAR     23  18  81 N3        30.57R
FLAG ISLAND    CLEAR     28  21  74 N6        30.57S WCI  22
INTL FALLS     MOCLDY    27  18  69 N9        30.54R WCI  18
WASKISH        CLEAR     21  18  86 CALM      30.56S
BIG FORK       CLEAR     25  18  74 CALM      30.54R
LONGVILLE      PTCLDY    25  18  74 CALM      30.54R
GRAND RAPIDS   PTCLDY    25  14  63 N6        30.51R WCI  18
CRANE LAKE     CLEAR     25  19  80 N8        30.54S WCI  16
ORR            CLOUDY    25  18  74 N3        30.49S
COOK           MOCLDY    25  18  74 N7        30.51R WCI  17
WALKER         FAIR      24  15  71 N6        30.54S WCI  16
$$
MNZ012-019>021-037-311200-
   Northeast Minnesota

CITY           SKY/WX    TMP DP  RH WIND       PRES   REMARKS
DULUTH         CLOUDY    27  16  63 NE16      30.46S WCI  15
ELY            CLEAR     21  18  86 N5        30.47S WCI  15
HIBBING        CLOUDY    27  15  61 NE9       30.50R WCI  18
EVELETH        PTCLDY    27  18  69 N3        30.50R
DULUTH HARBOR  CLEAR     32  21  64 N22       30.51S WCI  19
TWO HARBORS    MOCLDY    28  19  69 NE5       30.47R WCI  23
SILVER BAY     CLEAR     27  18  69 N7        30.46R WCI  19
GRAND MARAIS     N/A     29  18  63 CALM      30.47R
G MARAIS ARPRT PTCLDY    21  16  79 N18G33    30.38R WCI   6
$$
MNZ029>031-032-039>041-046>048-054>057-064-311200-
   West Central Minnesota

CITY           SKY/WX    TMP DP  RH WIND       PRES   REMARKS
FERGUS FALLS   CLEAR     18  14  86 N3        30.60R
WHEATON        CLEAR     16  16 100 NW6       30.61R WCI   7
MORRIS         CLEAR     18  16  93 NW8       30.55S WCI   7
ALEXANDRIA     CLEAR     26  17  68 NE13      30.54R WCI  15
ELBOW LAKE     FAIR      19  17  94 N5        30.55S WCI  12
WADENA         CLEAR     18  14  86 NW3       30.54R
GLENWOOD       CLEAR     23  18  80 N8        30.53S WCI  14
APPLETON       CLEAR     21  19  93 N7        30.57R WCI  13
BENSON         CLEAR     18  16  93 N5        30.55S WCI  11
ORTONVILLE     CLEAR     21  18  86 NW7       30.57R WCI  13
MADISON        CLEAR     25  21  86 NW7       30.58R WCI  17
WILLMAR        FAIR      27  18  69 N7        30.55R WCI  19
$$
MNZ033>034-036-042>043-049>051-058-059-311200-
   Central Minnesota

CITY           SKY/WX    TMP DP  RH WIND       PRES   REMARKS
ST CLOUD       CLEAR     27  17  66 N9        30.52R WCI  18
SAUK CENTRE    FAIR      24  17  74 N7        30.54R WCI  16
PAYNESVILLE    CLEAR     21  16  81 W7        30.53S WCI  12
AITKIN         PTCLDY    27  18  69 N8        30.51S WCI  18
PINE RIVER     CLEAR     27  18  69 N10       30.56R WCI  17
BRAINERD       CLEAR     25  17  72 N7        30.53R WCI  17
STAPLES        CLEAR     21  16  79 N6        30.53S WCI  14
LONG PRAIRIE   FAIR      23  18  80 NW3       30.53S
LITTLE FALLS   CLEAR     27  18  69 CALM      30.53S
LITCHFIELD       N/A     25  19  80 N9        30.52S WCI  15
BUFFALO        CLEAR     27  18  71 N7        30.53R WCI  19
MAPLE LAKE     CLEAR     28  20  74 N7        30.52S WCI  20
$$
MNZ037-044-045-052-053-311200-
   East Central Minnesota

CITY           SKY/WX    TMP DP  RH WIND       PRES   REMARKS
PRINCETON      CLEAR     27  18  69 N8        30.51S WCI  18
MORA           PTCLDY    27  18  69 N3        30.52R
CAMBRIDGE      CLEAR     28  18  64 NW7       30.49R WCI  21
RUSH CITY      CLEAR     27  17  66 N9        30.51R WCI  17
MOOSE LAKE     CLEAR     28  18  64 N8        30.48R WCI  20
HINCKLEY       FAIR      28  19  69 CALM      30.49S
CLOQUET        CLOUDY    27  16  63 N7        30.48S WCI  19
MCGREGOR       MOCLDY    28  19  69 N9        30.52R WCI  20
$$
MNZ071>073-080-081-089-090-097-098-311200-
   Southwest Minnesota

CITY           SKY/WX    TMP DP  RH WIND       PRES   REMARKS
MONTEVIDEO     CLEAR     21  19  93 N7        30.56S WCI  13
GRANITE FALLS  CLEAR     24  20  85 NW8       30.56S WCI  15
CANBY          CLEAR     21  20  95 NW7       30.58R WCI  13
MARSHALL       CLEAR     18  14  86 NW8       30.53S WCI   7
REDWOOD FALLS  CLEAR     24  20  84 NW8       30.53R WCI  15
OLIVIA         CLEAR     23  19  86 NW7       30.52S WCI  15
PIPESTONE      CLEAR     21  18  86 N6        30.52R WCI  14
WINDOM         CLEAR     23  19  86 NW10      30.50S WCI  12
WORTHINGTON    CLEAR     21  18  86 N13       30.50S WCI   9
JACKSON        CLEAR     27  19  74 N8        30.49R WCI  18
TRACY          CLEAR     23  20  89 NW9       30.53S WCI  13
SLAYTON        CLEAR     22  20  91 N13       30.51S WCI  10
$$
MNZ065>067-074>077-082>085-091>093-311200-
   South Central Minnesota

CITY           SKY/WX    TMP DP  RH WIND       PRES   REMARKS
MANKATO        CLEAR     25  12  58 NW9       30.49R WCI  15
NEW ULM        CLEAR     25  19  80 N9        30.51R WCI  15
ST JAMES       CLEAR     27  19  74 NW10      30.51S WCI  17
FAIRMONT       CLEAR     25  16  68 NW15      30.48R WCI  12
GLENCOE        CLEAR     26  19  77 NW5       30.51R WCI  20
FARIBAULT      CLEAR     27  18  69 N9G17     30.47R WCI  17
OWATONNA       CLEAR     25  18  74 N10       30.46R WCI  15
WASECA         CLEAR     27  14  59 N10       30.48R WCI  17
ALBERT LEA     CLEAR     27  18  69 N9        30.44R WCI  17
$$
MNZ078>079-086>088-094>096-311200-
   Southeast Minnesota

CITY           SKY/WX    TMP DP  RH WIND       PRES   REMARKS
ROCHESTER      CLEAR     26  17  68 N15G23    30.41R WCI  14
RED WING       CLEAR     28  16  59 NW8       30.45R WCI  20
STANTON        CLEAR     28  18  67 NW12      30.46R WCI  18
DODGE CENTER   CLEAR     27  19  74 N16G24    30.42R WCI  14
WINONA         CLEAR     32  21  64 NW15G21   30.39R WCI  22
AUSTIN         CLEAR     27  18  69 N13G18    30.42R WCI  16
PRESTON        CLEAR     25  18  73 N17G23    30.37R WCI  12
$$
ABBREVIATIONS USED IN REMARKS
   TC - TEMPERATURES IN CELSIUS
  WCI - WIND CHILL INDEX
   HX - HEAT INDEX
  VSB - VISIBILITY
$$



USA.gov is the U.S. government's official web portal to all federal, state and local government web resources and services.